GW5457 Weather Reports


time (UTC)temp
C
wind
direction
speed
KPH
gust
KPH
rain 1hr
cm
rain 24hr
cm
rain mn
cm
humidity
%
barometer
mb
20260504160320 10 308 14.5 14.5 0.00 0.00 0.00 50 1015.5
20260504150745 10 300 11.3 12.9 0.00 0.00 0.00 52 1015.7
20260504150242 10 304 11.3 14.5 0.00 0.00 0.00 55 1015.6
20260504141211 8 269 19.3 20.9 0.00 0.00 0.00 62 1015.8
20260504140708 8 272 17.7 20.9 0.00 0.00 0.00 62 1015.8
20260504140203 8 274 16.1 20.9 0.00 0.00 0.00 63 1015.8
20260504130632 7 269 14.5 16.1 0.00 0.00 0.00 65 1015.5
20260504130128 7 280 16.1 17.7 0.00 0.00 0.00 65 1015.8
20260504110520 7 296 9.7 12.9 0.00 0.00 0.00 58 1015.7
20260504100442 7 346 3.2 3.2 0.00 0.00 0.00 62 1015.7
20260504081840 8 47 14.5 14.5 0.00 0.00 0.00 56 1015.2
20260504081337 8 18 9.7 12.9 0.00 0.00 0.00 55 1014.9
20260504080833 8 50 17.7 20.9 0.00 0.00 0.00 54 1014.8
20260504080330 9 50 16.1 20.9 0.00 0.00 0.00 53 1015.1
20260504070257 10 44 19.3 24.1 0.00 0.00 0.00 46 1013.4
20260504060218 12 30 16.1 24.1 0.00 0.00 0.00 37 1012.0
20260504050646 12 24 29.0 35.4 0.00 0.00 0.00 37 1010.7
20260504050143 12 43 32.2 37.0 0.00 0.00 0.00 37 1010.7
20260504045640 13 42 30.6 35.4 0.00 0.00 0.00 37 1010.4
20260504045140 13 30 24.1 29.0 0.00 0.00 0.00 38 1010.6
20260504044638 13 55 20.9 27.4 0.00 0.00 0.00 38 1010.2
20260504044134 14 32 24.1 27.4 0.00 0.00 0.00 37 1009.9
20260504043632 13 29 17.7 20.9 0.00 0.00 0.00 37 1010.0
20260504043129 13 15 11.3 14.5 0.00 0.00 0.00 38 1009.6
20260504042626 13 21 11.3 12.9 0.00 0.00 0.00 38 1009.4
20260504042123 13 27 11.3 14.5 0.00 0.00 0.00 37 1009.5
20260504041618 13 20 11.3 14.5 0.00 0.00 0.00 37 1009.2
20260504041115 13 27 9.7 12.9 0.00 0.00 0.00 37 1009.2
20260504040612 13 18 9.7 12.9 0.00 0.00 0.00 36 1009.0
20260504040109 14 22 9.7 11.3 0.00 0.00 0.00 36 1008.9
20260504035606 14 33 9.7 12.9 0.00 0.00 0.00 36 1008.9
20260504035102 14 47 8.0 12.9 0.00 0.00 0.00 36 1008.8
20260504034600 14 31 12.9 14.5 0.00 0.00 0.00 36 1008.7
20260504034056 15 25 11.3 14.5 0.00 0.00 0.00 36 1008.5
20260504033554 15 17 9.7 12.9 0.00 0.00 0.00 36 1008.4
20260504033052 15 39 8.0 11.3 0.00 0.00 0.00 35 1008.4
20260504032549 15 33 8.0 11.3 0.00 0.00 0.00 34 1008.4
20260504032045 15 35 11.3 12.9 0.00 0.00 0.00 34 1008.1
20260504031542 16 39 17.7 24.1 0.00 0.00 0.00 34 1008.0
20260504031038 16 27 12.9 17.7 0.00 0.00 0.00 34 1007.8
20260504030536 16 66 11.3 12.9 0.00 0.00 0.00 33 1007.6
20260504030032 16 39 17.7 20.9 0.00 0.00 0.00 32 1007.7
20260504025529 16 42 9.7 12.9 0.00 0.00 0.00 32 1007.6
20260504025026 16 52 17.7 20.9 0.00 0.00 0.00 30 1007.7
20260504024523 17 33 11.3 16.1 0.00 0.00 0.00 29 1007.6
20260504024020 17 26 11.3 14.5 0.00 0.00 0.00 29 1007.5
20260504023516 17 39 11.3 14.5 0.00 0.00 0.00 28 1007.7
20260504023012 18 30 11.3 12.9 0.00 0.00 0.00 26 1007.5
20260504022508 18 26 14.5 17.7 0.00 0.00 0.00 24 1007.6
20260504022005 18 10 4.8 4.8 0.00 0.00 0.00 22 1007.4
20260504021503 18 352 0.0 1.6 0.00 0.00 0.00 22 1007.4
20260504020959 19 344 1.6 1.6 0.00 0.00 0.00 21 1007.5
20260504020456 20 11 4.8 8.0 0.00 0.00 0.00 20 1007.4
20260504015953 20 4 8.0 9.7 0.00 0.00 0.00 20 1007.6
20260504015449 20 353 9.7 12.9 0.00 0.00 0.00 20 1007.4
20260504014945 20 13 11.3 12.9 0.00 0.00 0.00 20 1007.4
20260504014441 21 336 16.1 20.9 0.00 0.00 0.00 20 1007.5
20260504013938 21 1 9.7 12.9 0.00 0.00 0.00 20 1007.5
20260504013437 21 356 12.9 14.5 0.00 0.00 0.00 19 1007.5
20260504012932 21 4 16.1 17.7 0.00 0.00 0.00 19 1007.5
20260504012430 22 0 11.3 14.5 0.00 0.00 0.00 19 1007.4
20260504011928 22 352 17.7 20.9 0.00 0.00 0.00 19 1007.3
20260504011424 22 3 12.9 14.5 0.00 0.00 0.00 19 1007.4
20260504010920 22 10 14.5 16.1 0.00 0.00 0.00 19 1007.6
20260504010416 22 359 20.9 22.5 0.00 0.00 0.00 19 1007.4
20260504005913 22 26 12.9 16.1 0.00 0.00 0.00 19 1007.6
20260504005409 22 357 17.7 20.9 0.00 0.00 0.00 19 1007.6
20260504004907 22 347 19.3 20.9 0.00 0.00 0.00 19 1007.6
20260504004405 22 8 16.1 17.7 0.00 0.00 0.00 19 1007.7
20260504003901 22 16 16.1 17.7 0.00 0.00 0.00 19 1007.8
20260504003358 23 339 14.5 16.1 0.00 0.00 0.00 18 1007.9
20260504002854 22 327 19.3 22.5 0.00 0.00 0.00 19 1008.0
20260504002351 22 3 11.3 12.9 0.00 0.00 0.00 18 1008.0
20260504001849 23 326 17.7 20.9 0.00 0.00 0.00 18 1007.8
20260504001346 23 343 19.3 24.1 0.00 0.00 0.00 18 1008.0
20260504000843 23 313 16.1 16.1 0.00 0.00 0.00 18 1008.0
20260504000340 23 0 14.5 16.1 0.00 0.00 0.00 18 1007.9
20260503235837 23 321 17.7 24.1 0.00 0.00 0.00 18 1008.3
20260503235335 23 310 12.9 14.5 0.00 0.00 0.00 19 1008.0
20260503234832 23 337 22.5 29.0 0.00 0.00 0.00 18 1008.3
20260503234330 23 359 20.9 24.1 0.00 0.00 0.00 18 1008.1
20260503233827 23 6 17.7 24.1 0.00 0.00 0.00 18 1008.0
20260503233323 23 337 8.0 9.7 0.00 0.00 0.00 19 1008.1
20260503232820 23 329 11.3 12.9 0.00 0.00 0.00 18 1008.1
20260503232317 23 354 19.3 25.7 0.00 0.00 0.00 18 1008.1
20260503231815 23 333 22.5 24.1 0.00 0.00 0.00 18 1008.1
20260503231312 23 312 20.9 25.7 0.00 0.00 0.00 18 1008.3
20260503230808 23 325 11.3 12.9 0.00 0.00 0.00 18 1008.1
20260503230305 23 317 20.9 22.5 0.00 0.00 0.00 18 1008.4
20260503225803 23 321 17.7 20.9 0.00 0.00 0.00 18 1008.4
20260503225258 23 347 22.5 25.7 0.00 0.00 0.00 18 1008.5
20260503224755 23 344 20.9 24.1 0.00 0.00 0.00 18 1008.4
20260503224252 23 340 22.5 24.1 0.00 0.00 0.00 18 1008.4
20260503223750 23 328 16.1 17.7 0.00 0.00 0.00 18 1008.6
20260503223247 23 315 17.7 17.7 0.00 0.00 0.00 19 1008.6
20260503222743 23 358 19.3 22.5 0.00 0.00 0.00 18 1008.7
20260503222241 23 356 16.1 17.7 0.00 0.00 0.00 18 1008.6
20260503221739 23 286 17.7 22.5 0.00 0.00 0.00 18 1008.8
20260503221237 22 312 16.1 17.7 0.00 0.00 0.00 19 1008.7
20260503220733 23 323 24.1 27.4 0.00 0.00 0.00 18 1009.0
20260503220230 23 325 24.1 25.7 0.00 0.00 0.00 19 1009.1
20260503215727 23 286 16.1 17.7 0.00 0.00 0.00 19 1008.9
20260503215224 23 331 16.1 20.9 0.00 0.00 0.00 19 1009.1
20260503214722 22 325 12.9 17.7 0.00 0.00 0.00 18 1009.0
20260503214218 23 307 14.5 17.7 0.00 0.00 0.00 18 1009.2
20260503213717 23 315 16.1 17.7 0.00 0.00 0.00 19 1009.1
20260503213213 22 300 16.1 17.7 0.00 0.00 0.00 20 1009.1
20260503212710 23 285 9.7 12.9 0.00 0.00 0.00 19 1009.1
20260503212208 22 344 8.0 11.3 0.00 0.00 0.00 20 1009.6
20260503211706 22 329 20.9 24.1 0.00 0.00 0.00 19 1009.7
20260503211201 23 297 24.1 32.2 0.00 0.00 0.00 19 1009.4
20260503210657 22 351 11.3 12.9 0.00 0.00 0.00 19 1009.8
20260503210154 22 344 17.7 20.9 0.00 0.00 0.00 19 1009.9
20260503205649 22 318 12.9 17.7 0.00 0.00 0.00 19 1009.9
20260503205146 22 290 17.7 20.9 0.00 0.00 0.00 19 1009.9
20260503204643 22 316 19.3 25.7 0.00 0.00 0.00 18 1010.0
20260503204141 22 349 17.7 17.7 0.00 0.00 0.00 18 1010.0
20260503203637 22 306 14.5 16.1 0.00 0.00 0.00 19 1010.0
20260503203135 22 348 16.1 17.7 0.00 0.00 0.00 20 1010.1
20260503202632 22 286 12.9 14.5 0.00 0.00 0.00 19 1010.2
20260503202130 22 312 17.7 20.9 0.00 0.00 0.00 21 1010.0
20260503201628 21 287 12.9 16.1 0.00 0.00 0.00 20 1010.2
20260503201125 22 329 16.1 22.5 0.00 0.00 0.00 20 1010.4
20260503200621 22 350 12.9 17.7 0.00 0.00 0.00 19 1010.3
20260503200118 22 289 19.3 24.1 0.00 0.00 0.00 18 1010.4
20260503195615 22 291 11.3 12.9 0.00 0.00 0.00 19 1010.4
20260503195112 22 308 9.7 11.3 0.00 0.00 0.00 20 1010.7
20260503194609 22 351 24.1 27.4 0.00 0.00 0.00 19 1010.7
20260503194103 22 332 25.7 32.2 0.00 0.00 0.00 20 1010.8
20260503193600 22 263 11.3 12.9 0.00 0.00 0.00 18 1010.9
20260503193056 22 302 14.5 16.1 0.00 0.00 0.00 18 1011.0
20260503192552 22 316 16.1 16.1 0.00 0.00 0.00 18 1010.8
20260503192048 21 302 12.9 14.5 0.00 0.00 0.00 19 1011.1
20260503191545 22 328 17.7 17.7 0.00 0.00 0.00 18 1011.2
20260503191042 21 291 12.9 14.5 0.00 0.00 0.00 19 1011.3
20260503190539 21 318 11.3 12.9 0.00 0.00 0.00 19 1011.2
20260503190036 21 302 12.9 14.5 0.00 0.00 0.00 19 1011.3
20260503185533 21 306 24.1 27.4 0.00 0.00 0.00 19 1011.3
20260503185032 22 273 6.4 8.0 0.00 0.00 0.00 19 1011.3
20260503184528 22 306 14.5 16.1 0.00 0.00 0.00 20 1011.3
20260503184025 22 317 8.0 9.7 0.00 0.00 0.00 21 1011.3
20260503183522 21 313 11.3 12.9 0.00 0.00 0.00 21 1011.3
20260503183019 21 316 17.7 20.9 0.00 0.00 0.00 20 1011.4
20260503182517 21 323 11.3 12.9 0.00 0.00 0.00 21 1011.4
20260503182015 21 308 11.3 14.5 0.00 0.00 0.00 21 1011.7
20260503181512 21 284 16.1 17.7 0.00 0.00 0.00 21 1011.5
20260503181008 21 257 1.6 1.6 0.00 0.00 0.00 22 1011.9
20260503180506 21 336 14.5 14.5 0.00 0.00 0.00 21 1012.1
20260503180002 21 299 16.1 20.9 0.00 0.00 0.00 22 1012.2
20260503175500 21 305 22.5 25.7 0.00 0.00 0.00 22 1012.1
20260503174956 21 331 11.3 14.5 0.00 0.00 0.00 23 1011.9
20260503174454 20 320 6.4 8.0 0.00 0.00 0.00 23 1012.2
20260503173949 21 306 17.7 20.9 0.00 0.00 0.00 24 1012.2
20260503173445 20 291 3.2 3.2 0.00 0.00 0.00 27 1012.1
20260503172942 20 298 9.7 11.3 0.00 0.00 0.00 26 1012.5
20260503172440 20 281 12.9 16.1 0.00 0.00 0.00 26 1012.3
20260503171936 20 279 12.9 14.5 0.00 0.00 0.00 26 1012.4
20260503171433 20 303 16.1 20.9 0.00 0.00 0.00 27 1012.3
20260503170931 20 315 11.3 14.5 0.00 0.00 0.00 29 1012.3
20260503170426 20 305 12.9 16.1 0.00 0.00 0.00 27 1012.3